| time (UTC) | temp F | wind direction | speed MPH | gust MPH | rain 1hr in | rain 24hr in | rain mn in | humidity % | barometer mb |
| 20260507184601 | 51 | 289 | 4.0 | 9.0 | 0.00 | 0.00 | 0.00 | 97 | 1001.9 |
| 20260507183104 | 0 | 353 | 2.0 | 8.0 | 0.00 | 0.00 | 0.00 | 1002.2 | |
| 20260507181603 | 0 | 293 | 3.0 | 11.0 | 0.00 | 0.00 | 0.00 | 1002.2 | |
| 20260507180059 | 0 | 296 | 4.0 | 10.0 | 0.00 | 0.00 | 0.00 | 1002.2 | |
| 20260507174559 | 0 | 329 | 3.0 | 7.0 | 0.00 | 0.00 | 0.00 | 1002.1 | |
| 20260507173106 | 0 | 353 | 2.0 | 9.0 | 0.00 | 0.00 | 0.00 | 1001.8 | |
| 20260507171604 | 0 | 299 | 4.0 | 16.0 | 0.00 | 0.00 | 0.00 | 1002.6 | |
| 20260507164606 | 0 | 260 | 2.0 | 5.0 | 0.00 | 0.00 | 0.00 | 1001.9 | |
| 20260507163056 | 0 | 173 | 6.0 | 12.0 | 0.00 | 0.00 | 0.00 | 1001.0 | |
| 20260507161558 | 0 | 154 | 8.0 | 13.0 | 0.00 | 0.00 | 0.00 | 1001.4 | |
| 20260507160057 | 0 | 170 | 8.0 | 12.0 | 0.00 | 0.00 | 0.00 | 1002.0 | |
| 20260507154601 | 0 | 142 | 5.0 | 11.0 | 0.00 | 0.00 | 0.00 | 1002.4 | |
| 20260507153106 | 0 | 105 | 3.0 | 5.0 | 0.00 | 0.00 | 0.00 | 1002.6 | |
| 20260507151553 | 0 | 144 | 8.0 | 12.0 | 0.00 | 0.00 | 0.00 | 1003.4 | |
| 20260507150059 | 0 | 180 | 3.0 | 8.0 | 0.00 | 0.00 | 0.00 | 1003.0 | |
| 20260507144556 | 0 | 109 | 2.0 | 4.0 | 0.00 | 0.00 | 0.00 | 1003.4 | |
| 20260507143058 | 0 | 129 | 1.0 | 3.0 | 0.00 | 0.00 | 0.00 | 1004.2 | |
| 20260507141554 | 0 | 0 | 0.0 | 3.0 | 0.00 | 0.00 | 0.00 | 1004.3 | |
| 20260507140057 | 0 | 258 | 0.0 | 4.0 | 0.00 | 0.00 | 0.00 | 1004.7 | |
| 20260507134603 | 0 | 161 | 9.0 | 16.0 | 0.00 | 0.00 | 0.00 | 1004.1 | |
| 20260507133115 | 0 | 223 | 8.0 | 17.0 | 0.00 | 0.00 | 0.00 | 1004.2 | |
| 20260507131554 | 0 | 203 | 13.0 | 21.0 | 0.00 | 0.00 | 0.00 | 1003.5 | |
| 20260507130106 | 0 | 183 | 11.0 | 23.0 | 0.00 | 0.00 | 0.00 | 1003.3 | |
| 20260507124555 | 0 | 198 | 14.0 | 22.0 | 0.00 | 0.00 | 0.00 | 1003.5 | |
| 20260507123054 | 0 | 214 | 13.0 | 23.0 | 0.00 | 0.00 | 0.00 | 1003.6 | |
| 20260507121606 | 0 | 148 | 13.0 | 27.0 | 0.00 | 0.00 | 0.00 | 1003.7 | |
| 20260507120104 | 0 | 177 | 15.0 | 28.0 | 0.00 | 0.00 | 0.00 | 1003.8 | |
| 20260507114633 | 0 | 181 | 17.0 | 24.0 | 0.00 | 0.00 | 0.00 | 1003.8 | |
| 20260507113056 | 0 | 190 | 17.0 | 27.0 | 0.00 | 0.00 | 0.00 | 1003.9 | |
| 20260507111559 | 0 | 151 | 14.0 | 26.0 | 0.00 | 0.00 | 0.00 | 1003.9 | |
| 20260507110055 | 0 | 170 | 14.0 | 25.0 | 0.00 | 0.00 | 0.00 | 1003.8 | |
| 20260507104556 | 0 | 151 | 15.0 | 23.0 | 0.00 | 0.00 | 0.00 | 1004.0 | |
| 20260507103053 | 0 | 138 | 15.0 | 24.0 | 0.00 | 0.00 | 0.00 | 1004.2 | |
| 20260507101555 | 0 | 184 | 13.0 | 30.0 | 0.00 | 0.00 | 0.00 | 1004.2 | |
| 20260507100052 | 0 | 146 | 14.0 | 33.0 | 0.00 | 0.00 | 0.00 | 1004.7 | |
| 20260507094559 | 0 | 154 | 18.0 | 32.0 | 0.00 | 0.00 | 0.00 | 1004.2 | |
| 20260507093057 | 0 | 144 | 19.0 | 37.0 | 0.00 | 0.00 | 0.00 | 1003.7 | |
| 20260507091556 | 0 | 194 | 18.0 | 35.0 | 0.00 | 0.00 | 0.00 | 1004.0 | |
| 20260507090052 | 0 | 140 | 19.0 | 34.0 | 0.00 | 0.00 | 0.00 | 1004.2 | |
| 20260507084600 | 0 | 196 | 18.0 | 34.0 | 0.00 | 0.00 | 0.00 | 1004.4 | |
| 20260507083055 | 0 | 146 | 21.0 | 32.0 | 0.00 | 0.00 | 0.00 | 1003.9 | |
| 20260507081553 | 0 | 128 | 19.0 | 35.0 | 0.00 | 0.00 | 0.00 | 1004.0 | |
| 20260507080119 | 0 | 169 | 21.0 | 31.0 | 0.00 | 0.00 | 0.00 | 1004.5 | |
| 20260507074551 | 0 | 107 | 20.0 | 32.0 | 0.00 | 0.00 | 0.00 | 1005.0 | |
| 20260507073105 | 0 | 141 | 16.0 | 33.0 | 0.00 | 0.00 | 0.00 | 1005.3 | |
| 20260507071553 | 0 | 180 | 17.0 | 31.0 | 0.00 | 0.00 | 0.00 | 1005.4 | |
| 20260507070054 | 0 | 189 | 17.0 | 27.0 | 0.00 | 0.00 | 0.00 | 1005.7 | |
| 20260507064555 | 0 | 173 | 13.0 | 25.0 | 0.00 | 0.00 | 0.00 | 1006.2 | |
| 20260507063057 | 0 | 176 | 10.0 | 23.0 | 0.00 | 0.00 | 0.00 | 1006.7 | |
| 20260507061554 | 0 | 183 | 14.0 | 24.0 | 0.00 | 0.00 | 0.00 | 1007.0 | |
| 20260507060056 | 0 | 166 | 13.0 | 18.0 | 0.00 | 0.00 | 0.00 | 1007.3 | |
| 20260507054554 | 0 | 192 | 9.0 | 25.0 | 0.00 | 0.00 | 0.00 | 1007.3 | |
| 20260507053054 | 0 | 139 | 10.0 | 19.0 | 0.00 | 0.00 | 0.00 | 1008.4 | |
| 20260507051552 | 0 | 146 | 12.0 | 20.0 | 0.00 | 0.00 | 0.00 | 1008.9 | |
| 20260507050055 | 0 | 135 | 13.0 | 19.0 | 0.00 | 0.00 | 0.00 | 1009.6 | |
| 20260507044558 | 0 | 158 | 11.0 | 18.0 | 0.00 | 0.00 | 0.00 | 1010.1 | |
| 20260507043058 | 0 | 150 | 13.0 | 21.0 | 0.00 | 0.00 | 0.00 | 1010.4 | |
| 20260507041602 | 0 | 180 | 11.0 | 20.0 | 0.00 | 0.00 | 0.00 | 1010.8 | |
| 20260507040100 | 0 | 128 | 12.0 | 21.0 | 0.00 | 0.00 | 0.00 | 1010.7 | |
| 20260507034558 | 0 | 184 | 9.0 | 20.0 | 0.00 | 0.00 | 0.00 | 1010.9 | |
| 20260507033112 | 0 | 144 | 13.0 | 20.0 | 0.00 | 0.00 | 0.00 | 1011.5 | |
| 20260507031603 | 0 | 116 | 10.0 | 20.0 | 0.00 | 0.00 | 0.00 | 1011.8 | |
| 20260507030055 | 0 | 139 | 12.0 | 21.0 | 0.00 | 0.00 | 0.00 | 1012.0 | |
| 20260507024606 | 0 | 163 | 10.0 | 16.0 | 0.00 | 0.00 | 0.00 | 1012.3 | |
| 20260507023054 | 0 | 149 | 12.0 | 19.0 | 0.00 | 0.00 | 0.00 | 1011.9 | |
| 20260507021556 | 0 | 176 | 12.0 | 20.0 | 0.00 | 0.00 | 0.00 | 1012.1 | |
| 20260507020112 | 0 | 175 | 13.0 | 20.0 | 0.00 | 0.00 | 0.00 | 1012.5 | |
| 20260507014604 | 0 | 111 | 10.0 | 24.0 | 0.00 | 0.00 | 0.00 | 1013.0 | |
| 20260507013057 | 0 | 171 | 11.0 | 21.0 | 0.00 | 0.00 | 0.00 | 1013.3 | |
| 20260507011556 | 0 | 163 | 13.0 | 23.0 | 0.00 | 0.00 | 0.00 | 1013.4 | |
| 20260507010059 | 0 | 164 | 14.0 | 26.0 | 0.00 | 0.00 | 0.00 | 1013.5 | |
| 20260507004603 | 0 | 213 | 14.0 | 26.0 | 0.00 | 0.00 | 0.00 | 1013.7 | |
| 20260507003054 | 0 | 130 | 12.0 | 25.0 | 0.00 | 0.00 | 0.00 | 1013.7 | |
| 20260507001556 | 0 | 189 | 13.0 | 23.0 | 0.00 | 0.00 | 0.00 | 1013.6 | |
| 20260507000055 | 0 | 146 | 11.0 | 26.0 | 0.00 | 0.00 | 0.00 | 1013.6 | |
| 20260506234554 | 0 | 131 | 12.0 | 32.0 | 0.00 | 0.00 | 0.00 | 1013.7 | |
| 20260506233108 | 0 | 143 | 11.0 | 27.0 | 0.00 | 0.00 | 0.00 | 1013.6 | |
| 20260506231602 | 0 | 220 | 15.0 | 28.0 | 0.00 | 0.00 | 0.00 | 1013.6 | |
| 20260506230058 | 63 | 147 | 14.0 | 24.0 | 0.00 | 0.00 | 0.00 | 74 | 1013.4 |
| 20260506224554 | 63 | 175 | 12.0 | 24.0 | 0.00 | 0.00 | 0.00 | 73 | 1013.5 |
| 20260506223103 | 64 | 158 | 13.0 | 27.0 | 0.00 | 0.00 | 0.00 | 72 | 1013.4 |
| 20260506221612 | 64 | 188 | 12.0 | 26.0 | 0.00 | 0.00 | 0.00 | 70 | 1013.5 |
| 20260506220056 | 65 | 136 | 16.0 | 31.0 | 0.00 | 0.00 | 0.00 | 67 | 1013.5 |
| 20260506214555 | 66 | 164 | 13.0 | 28.0 | 0.00 | 0.00 | 0.00 | 65 | 1013.5 |
| 20260506213115 | 66 | 198 | 13.0 | 27.0 | 0.00 | 0.00 | 0.00 | 65 | 1013.1 |
| 20260506211558 | 67 | 172 | 13.0 | 26.0 | 0.00 | 0.00 | 0.00 | 65 | 1013.2 |
| 20260506210054 | 67 | 220 | 12.0 | 32.0 | 0.00 | 0.00 | 0.00 | 63 | 1013.2 |
| 20260506204557 | 68 | 160 | 12.0 | 27.0 | 0.00 | 0.00 | 0.00 | 61 | 1013.1 |
| 20260506203052 | 69 | 189 | 14.0 | 28.0 | 0.00 | 0.00 | 0.00 | 59 | 1012.9 |
| 20260506201556 | 70 | 189 | 10.0 | 26.0 | 0.00 | 0.00 | 0.00 | 57 | 1012.8 |
| 20260506200054 | 71 | 158 | 16.0 | 25.0 | 0.00 | 0.00 | 0.00 | 55 | 1012.8 |
| 20260506194559 | 71 | 142 | 10.0 | 20.0 | 0.00 | 0.00 | 0.00 | 59 | 1012.8 |
| 20260506193056 | 71 | 158 | 13.0 | 28.0 | 0.00 | 0.00 | 0.00 | 59 | 1013.1 |
| 20260506191553 | 71 | 225 | 16.0 | 24.0 | 0.00 | 0.00 | 0.00 | 59 | 1013.3 |
| 20260506190053 | 72 | 191 | 18.0 | 29.0 | 0.00 | 0.00 | 0.00 | 57 | 1013.6 |